Regional Weather Roundup
Issued by NWS Northern Indiana

Home | Current Version | Previous Version | Text Only | Print | Product List | Glossary Off
Versions: 1 2 3 4 5 6 7 8 9 10 11 12 13 14 15 16 17 18 19 20 21 22 23 24 25 26 27 28 29 30 31 32 33 34 35 36 37 38 39 40 41 42 43 44 45 46 47 48 49 50

000
ASUS43 KIWX 240300
RWRIWX

KIWX WEATHER ROUNDUP
NATIONAL WEATHER SERVICE NORTHERN INDIANA
1100 PM EDT THU OCT 23 2014

NOTE: "FAIR" INDICATES FEW OR NO CLOUDS BELOW 12,000 FEET WITH NO
SIGNIFICANT WEATHER AND/OR OBSTRUCTIONS TO VISIBILITY.

* THESE STATIONS ARE NOT UNDER NWS QUALITY CONTROL. THEY ALSO MAY NOT
  REPORT WEATHER SUCH AS PRECIPITATION OR FOG.

INZ001>027-240400-
NORTHERN INDIANA

CITY           SKY/WX    TMP DP  RH WIND       PRES   REMARKS
SOUTH BEND     MOCLDY    48  40  73 SE3       30.11F
GOSHEN         PTCLDY    42  38  85 CALM      30.11S
ANGOLA*        CLEAR     39  39 100 CALM      30.11S
FORT WAYNE     MOCLDY    44  38  79 CALM      30.12S

$$
INZ028>050-240400-
CENTRAL INDIANA

CITY           SKY/WX    TMP DP  RH WIND       PRES   REMARKS
LAFAYETTE      CLOUDY    45  41  86 CALM      30.11S
KOKOMO*        CLOUDY    46  39  76 CALM      30.12S
MUNCIE*        CLOUDY    44  40  85 CALM      30.12S
INDIANAPOLIS   CLOUDY    49  40  71 CALM      30.11S

$$
MIZ043>046-050>051-056>058-064>065-071>073-077>080-240400-
SOUTHWEST LOWER MICHIGAN

CITY           SKY/WX    TMP DP  RH WIND       PRES   REMARKS
BATTLE CREEK   MOCLDY    44  38  79 S3        30.11S
BENTON HARBOR  MOCLDY    46  40  79 SE3       30.10S
COLDWATER*     PTCLDY    38  37  95 MISG      30.11S
HILLSDALE*     PTCLDY    37  36  96 CALM      30.10F
HOLLAND        CLOUDY    49  43  80 CALM      30.10S
GRAND RAPIDS   CLOUDY    49  40  71 SW3       30.10S
KALAMAZOO      MOCLDY    45  40  82 CALM      30.11S
STURGIS*       PTCLDY    39  37  93 CALM      30.10F
THREE RIVERS*  FAIR      43  40  90 CALM      30.11F

$$
OHZ001>008-015>018-024>025-240400-
NORTHWEST OHIO

CITY           SKY/WX    TMP DP  RH WIND       PRES   REMARKS
DEFIANCE       PTCLDY    40  36  86 CALM      30.11F
FINDLAY        MOCLDY    40  36  86 S3        30.11F
TOLEDO EXPRESS MOCLDY    39  36  89 CALM      30.11S
TOLEDO METCALF MOCLDY    42  36  79 SW3       30.12S
LIMA           PTCLDY    44  38  79 CALM      30.11F

$$
AND FOR LAKE MICHIGAN COASTAL AND OPEN LAKE BUOY OBSERVATIONS

STATION/POSITION TEMP    WIND        PRES    VSBY  WAVE
                 AIR SEA DIR/SP/G                  HT/PER
                 (F)     (DEG/KT/KT) (MB)    (MI)  (FT/S)
CALUMET HARBOR    55     200/  4/  7 1017.6R
MICHIGAN CITY     53     140/  7/  9   N/A
SAINT JOSEPH      52                 1020.0R
SOUTH LAKE BUOY   55 54  190/ 10/ 12 1019.1R         2/ 4

$$
&&



USA.gov is the U.S. government's official web portal to all federal, state and local government web resources and services.